PST,Max TemperatureF,Mean TemperatureF,Min TemperatureF,Max Dew PointF,MeanDew PointF,Min DewpointF,Max Humidity, Mean Humidity, Min Humidity, Max Sea Level PressureIn, Mean Sea Level PressureIn, Min Sea Level PressureIn, Max VisibilityMiles, Mean VisibilityMiles, Min VisibilityMiles, Max Wind SpeedMPH, Mean Wind SpeedMPH, Max Gust SpeedMPH,PrecipitationIn, CloudCover, Events, WindDirDegrees
2013-1-1,28,16,3,16,8,1,96,88,62,30.55,30.41,30.23,10,6,0,10,2,12,0.00,1,Fog,360
2013-1-2,25,13,0,15,6,-2,95,85,67,30.53,30.43,30.31,10,10,7,9,3,10,0.00,1,,352
2013-1-3,29,14,-1,17,8,0,100,84,50,30.44,30.37,30.18,10,10,7,10,2,10,0.00,1,,343
2013-1-4,29,17,5,19,11,3,100,85,63,30.49,30.40,30.30,10,10,10,8,2,10,0.00,1,,343
2013-1-5,28,19,10,28,22,10,100,90,75,30.34,30.20,30.10,10,6,0,12,4,14,0.09,7,Snow,356
2013-1-6,32,29,25,29,28,23,100,95,85,30.26,30.18,30.08,10,7,2,9,3,18,0.00,8,,317
2013-1-7,36,31,26,34,29,25,100,94,82,30.30,30.24,30.18,10,7,1,14,6,17,T,8,Rain,159
2013-1-8,40,32,24,34,31,24,100,97,79,30.34,30.26,30.16,10,4,0,14,1,16,0.00,6,Fog,158
2013-1-9,40,29,17,33,26,15,100,82,64,30.12,29.89,29.81,10,7,1,24,11,28,0.03,7,Rain-Snow,295
2013-1-10,30,18,5,22,15,4,100,84,63,30.06,30.00,29.90,10,9,4,20,6,25,T,5,Snow,301
2013-1-11,28,15,1,22,15,0,92,81,55,30.26,30.08,29.97,10,8,1,22,8,26,T,6,Snow,281
2013-1-12,37,16,-5,8,0,-8,95,75,36,30.39,30.31,30.14,10,10,7,5,1,,0.00,2,,108
2013-1-13,37,16,-4,6,-5,-11,78,64,26,30.49,30.32,30.19,10,5,0,5,0,7,0.00,3,Fog,132
2013-1-14,23,12,0,11,2,-8,83,70,45,30.58,30.54,30.35,10,9,7,8,1,9,0.00,1,,162
2013-1-15,29,16,2,12,6,0,96,77,50,30.82,30.72,30.52,10,10,8,6,1,7,0.00,1,,14
2013-1-16,32,17,1,17,7,-2,95,80,53,30.82,30.72,30.59,10,9,7,6,0,7,0.00,0,,80
2013-1-17,34,18,1,18,9,-1,96,82,51,30.68,30.58,30.48,10,9,4,5,0,5,0.00,0,Fog,-1
2013-1-18,35,18,1,18,8,-2,96,81,51,30.58,30.51,30.36,10,8,6,6,1,6,0.00,1,,71
2013-1-19,34,16,-2,18,6,-5,100,82,49,30.59,30.50,30.38,10,9,3,7,0,8,0.00,1,Fog,-1
2013-1-20,35,17,-1,15,7,-3,95,77,47,30.59,30.51,30.43,10,9,7,6,1,7,0.00,0,,54
2013-1-21,35,17,-1,17,8,-2,95,76,44,30.51,30.41,30.32,10,9,7,8,1,9,0.00,0,,3
2013-1-22,34,19,4,19,13,4,92,74,58,30.35,30.23,30.09,10,9,7,10,2,13,0.00,3,,354
2013-1-23,46,38,29,35,26,18,100,59,36,30.12,30.02,29.96,10,10,7,28,10,36,0.13,7,Rain,167
2013-1-24,43,35,27,38,33,27,100,97,82,30.24,30.17,30.10,10,6,0,7,1,18,T,6,Fog,94
2013-1-25,39,34,28,38,33,28,100,100,100,30.22,30.10,29.96,7,1,0,12,1,13,0.14,7,Fog-Rain,106
2013-1-26,38,32,25,36,31,23,100,91,59,30.04,29.94,29.90,10,6,1,14,6,17,0.05,6,Rain,297
2013-1-27,35,28,20,25,22,18,96,81,61,30.13,30.09,30.01,10,9,7,15,5,18,T,5,Snow,275
2013-1-28,34,31,28,28,26,24,92,83,75,30.21,30.13,30.02,10,10,7,20,10,24,T,7,,265
2013-1-29,42,35,27,30,28,25,92,78,62,30.45,30.33,30.16,10,10,7,28,11,32,0.00,4,,288
2013-1-30,46,36,25,34,28,24,100,89,58,30.53,30.46,30.41,10,7,0,7,1,10,0.00,4,Fog,262
2013-1-31,46,34,22,34,26,21,100,92,65,30.43,30.36,30.30,10,5,0,8,1,8,0.00,4,Fog,349